Weather History for Big Piney, WY

Change the Weather History Date:

Friday, July 12, 2013

  Actual Average Record
Temperature  
Mean Temperature 64 °F 62 °F  
Max Temperature 76 °F 80 °F 94 °F (2002)
Min Temperature 51 °F 43 °F 30 °F (1994)
Degree Days  
Heating Degree Days 1 4  
Month to date heating degree days 4 56  
Since 1 June heating degree days 221 361  
Since 1 July heating degree days 4 56  
Cooling Degree Days 0 1  
Month to date cooling degree days 35 4  
Year to date cooling degree days 55 6  
Since 1 June cooling degree days 55 6  
Growing Degree Days 14 (Base 50)    
Moisture  
Dew Point 42 °F    
Average Humidity 53    
Maximum Humidity 83    
Minimum Humidity 23    
Precipitation  
Precipitation T in 0.02 in 0.34 in (2009)
Month to date precipitation 0.36 0.24  
Year to date precipitation 2.06 3.50  
Sea Level Pressure  
Sea Level Pressure 29.92 in    
Wind  
Wind Speed 6 mph (SW)    
Max Wind Speed 18 mph    
Max Gust Speed 23 mph    
Visibility 10 miles    
Events Rain    
T = Trace of Precipitation, MM = Missing Value Source: NWS Daily Summary

Daily Weather History Graph

Daily Weather History Graph

Search for Another Location

Airport:

Trip Planner

Search our weather history database for the weather conditions in past years. The results will help you decide how hot, cold, wet, or windy it might be!

Date:

Astronomy

Jul. 12, 2013 Rise Set
Actual Time 5:54 AM MDT 8:57 PM MDT
Civil Twilight 5:20 AM MDT 9:31 PM MDT
Nautical Twilight 4:36 AM MDT 10:15 PM MDT
Astronomical Twilight 3:44 AM MDT 11:06 PM MDT
Moon 10:21 AM MDT (7/12) 11:02 PM MDT (7/12)
Length of Visible Light 16h 11m
Length of Day
15h 03m
Waxing Crescent, 18% of the Moon is Illuminated
Jul 12
Waxing Crescent
Jul 15
First Quarter
Jul 22
Full
Jul 29
Last Quarter
Aug 6
New

Hourly Weather History & Observations

Time (MDT) Temp. Dew Point Humidity Pressure Visibility Wind Dir Wind Speed Gust Speed Precip Events Conditions
12:53 AM 57.9 °F 46.9 °F 67% 29.85 in 10.0 mi Calm Calm - 0.00 in Rain Light Rain
1:53 AM 57.0 °F 46.9 °F 69% 29.85 in 10.0 mi Calm Calm - 0.00 in   Mostly Cloudy
2:53 AM 55.9 °F 46.9 °F 72% 29.87 in 10.0 mi NW 3.5 mph - N/A   Overcast
3:53 AM 55.9 °F 46.9 °F 72% 29.88 in 10.0 mi Calm Calm - N/A   Overcast
4:53 AM 54.0 °F 48.9 °F 83% 29.89 in 10.0 mi Calm Calm - 0.00 in   Mostly Cloudy
5:53 AM 55.0 °F 48.0 °F 77% 29.90 in 10.0 mi NNW 6.9 mph - N/A   Overcast
6:53 AM 55.9 °F 46.9 °F 72% 29.92 in 10.0 mi NW 5.8 mph - N/A   Overcast
7:53 AM 59.0 °F 46.9 °F 64% 29.91 in 10.0 mi North 3.5 mph - 0.00 in Rain Light Rain
8:53 AM 61.0 °F 46.9 °F 60% 29.93 in 10.0 mi Calm Calm - 0.00 in   Overcast
9:53 AM 64.0 °F 46.0 °F 52% 29.94 in 10.0 mi SSW 3.5 mph - N/A   Mostly Cloudy
10:53 AM 66.0 °F 45.0 °F 47% 29.95 in 10.0 mi Variable 3.5 mph - N/A   Mostly Cloudy
11:53 AM 69.1 °F 44.1 °F 40% 29.94 in 10.0 mi WSW 6.9 mph - N/A   Mostly Cloudy
12:53 PM 70.0 °F 42.1 °F 36% 29.94 in 10.0 mi NNW 5.8 mph - N/A   Mostly Cloudy
1:53 PM 72.0 °F 33.1 °F 24% 29.94 in 10.0 mi WSW 9.2 mph - N/A   Overcast
2:16 PM 68.0 °F 39.2 °F 35% 30.23 in 10.0 mi South 13.8 mph - N/A   Overcast
2:53 PM 70.0 °F 41.0 °F 35% 29.95 in 10.0 mi SSW 10.4 mph - N/A   Partly Cloudy
3:53 PM 73.9 °F 35.1 °F 24% 29.92 in 10.0 mi SSW 8.1 mph - N/A   Clear
4:53 PM 73.9 °F 37.0 °F 26% 29.90 in 10.0 mi SSW 8.1 mph - N/A   Clear
5:53 PM 75.9 °F 37.0 °F 24% 29.87 in 10.0 mi SSW 10.4 mph - N/A   Clear
6:53 PM 75.0 °F 35.1 °F 23% 29.86 in 10.0 mi South 9.2 mph - N/A   Clear
7:53 PM 72.0 °F 37.9 °F 29% 29.87 in 10.0 mi South 9.2 mph - N/A   Clear
8:53 PM 69.1 °F 39.0 °F 33% 29.88 in 10.0 mi SSE 8.1 mph - N/A   Clear
9:53 PM 61.0 °F 37.9 °F 42% 29.91 in 10.0 mi NNW 9.2 mph - N/A   Clear
10:53 PM 57.9 °F 37.9 °F 47% 29.94 in 10.0 mi NNW 11.5 mph - N/A   Clear
11:53 PM 52.0 °F 39.9 °F 63% 29.96 in 10.0 mi South 4.6 mph - N/A   Clear